sat.trackr.live / text

‹ back to catalog

ONEWEB-0088

NORAD 45457 · 2020-020AK

PAYLOAD ACTIVE UNKNOWN

§ Identity

Operator
Country
UK
Launch date
2020-03-21
Launch site
TYMSC
Launch vehicle
Mass (kg)
RCS (m²)

Purposes: comms

External: N2YO · Heavens-Above · Gunter

§ Orbital elements

Epoch: 2026-09-19T12:12:45.664704Z

Period
109.81 min
Inclination
87.8984°
Eccentricity
0.0002060
Mean motion
13.11415178 rev/d
Perigee alt
1,216.1 km
Apogee alt
1,219.3 km
Semi-major
7,595.8 km
B*
1.1119e-3
RAAN
2.2981°
Arg perigee
112.1692°
Mean anomaly
247.9655°
Rev number
31,490

§ Raw data

ONEWEB-00881 45457U 20020AK  26262.50886186  .00000407  00000+0  11119-2 0  99942 45457  87.8984   2.2981 0002060 112.1692 247.9655 13.11415178314900

JSON: /api/v1/satellites/45457 · /tle

For live sub-satellite position, see the globe view (requires WebGL).

§ Visibility from observer

Set your observer location to see the next 7 days of passes ≥ 10°. The values pass through the URL so the page stays shareable.

No JS? Fill the form by hand. The geolocation button needs JavaScript.